Weather History for KCGI - November, 2011

Change the Weather History Date:

Thursday, November 3, 2011

  Actual Average Record
Temperature  
Mean Temperature 52 °F 52 °F  
Max Temperature 60 °F 64 °F 80 °F (2003)
Min Temperature 44 °F 40 °F 20 °F (1966)
Degree Days  
Heating Degree Days 13 13  
Month to date heating degree days 33 39  
Since 1 July heating degree days 320 342  
Cooling Degree Days 0 0  
Month to date cooling degree days 0 0  
Year to date cooling degree days 1697 1451  
Growing Degree Days 2 (Base 50)    
Moisture  
Dew Point 45 °F    
Average Humidity 71    
Maximum Humidity 93    
Minimum Humidity 49    
Precipitation  
Precipitation 0.42 in 0.13 in 1.44 in (1961)
Month to date precipitation 0.42 0.39  
Year to date precipitation 59.41 38.51  
Sea Level Pressure  
Sea Level Pressure 29.87 in    
Wind  
Wind Speed 17 mph (WSW)    
Max Wind Speed 33 mph    
Max Gust Speed 41 mph    
Visibility 7 miles    
Events Rain , Thunderstorm    
T = Trace of Precipitation, MM = Missing Value Source: NWS Daily Summary

Daily Weather History Graph

Daily Weather History Graph

Search for Another Location

Airport or City:

Trip Planner

Search our weather history database for the weather conditions in past years. The results will help you decide how hot, cold, wet, or windy it might be!

Date:

Astronomy

Nov. 03, 2011 Rise Set
Actual Time 7:24 AM CDT 5:58 PM CDT
Civil Twilight 6:57 AM CDT 6:25 PM CDT
Nautical Twilight 6:26 AM CDT 6:56 PM CDT
Astronomical Twilight 5:56 AM CDT 7:26 PM CDT
Moon 2:14 PM CDT (11/3) 12:45 AM CDT (11/3)
Length of Visible Light 11h 28m
Length of Day
10h 34m
First Quarter, 60% of the Moon is Illuminated
Nov 3
First Quarter
Nov 10
Full
Nov 18
Last Quarter
Nov 25
New
Dec 2
First Quarter

Hourly Weather History & Observations

Time (CDT) Temp. Windchill Dew Point Humidity Pressure Visibility Wind Dir Wind Speed Gust Speed Precip Events Conditions
12:53 AM 57.0 °F - 39.0 °F 51% 29.91 in 10.0 mi SSE 12.7 mph - N/A   Clear
1:53 AM 57.9 °F - 39.9 °F 51% 29.85 in 10.0 mi SSE 16.1 mph 20.7 mph N/A   Overcast
2:53 AM 60.1 °F - 41.0 °F 49% 29.80 in 10.0 mi SSE 18.4 mph 25.3 mph N/A   Overcast
3:15 AM 57.2 °F - 44.6 °F 63% 29.83 in 5.0 mi South 18.4 mph 25.3 mph 0.06 in Rain , Thunderstorm Heavy Thunderstorms and Rain
3:24 AM 55.4 °F - 46.4 °F 72% 29.83 in 2.5 mi South 13.8 mph 25.3 mph 0.15 in Rain Heavy Rain
3:42 AM 53.6 °F - 48.2 °F 82% 29.83 in 4.0 mi South 10.4 mph - 0.27 in Rain Heavy Rain
3:53 AM 54.0 °F - 48.9 °F 83% 29.84 in 3.0 mi SSW 12.7 mph - 0.32 in Rain Heavy Rain
4:53 AM 54.0 °F - 51.1 °F 90% 29.75 in 6.0 mi SSE 13.8 mph - 0.07 in Rain Rain
5:03 AM 53.6 °F - 51.8 °F 94% 29.76 in 10.0 mi South 12.7 mph 20.7 mph 0.00 in   Overcast
5:43 AM 55.4 °F - 53.6 °F 94% 29.78 in 10.0 mi South 13.8 mph 25.3 mph 0.00 in   Overcast
5:53 AM 55.9 °F - 53.1 °F 90% 29.77 in 10.0 mi South 16.1 mph 23.0 mph 0.00 in   Overcast
6:53 AM 55.9 °F - 53.1 °F 90% 29.76 in 8.0 mi SSW 13.8 mph 23.0 mph 0.00 in Rain Light Rain
7:05 AM 55.4 °F - 53.6 °F 94% 29.76 in 10.0 mi SSW 17.3 mph 25.3 mph 0.00 in   Overcast
7:19 AM 51.8 °F - 46.4 °F 82% 29.79 in 10.0 mi WSW 24.2 mph 39.1 mph 0.00 in Rain Light Rain
7:53 AM 50.0 °F - 45.0 °F 83% 29.80 in 10.0 mi WSW 20.7 mph 27.6 mph 0.00 in   Overcast
8:02 AM 50.0 °F - 44.6 °F 82% 29.79 in 10.0 mi WSW 17.3 mph - N/A   Overcast
8:53 AM 48.9 °F - 42.1 °F 77% 29.83 in 10.0 mi WSW 23.0 mph 29.9 mph N/A   Overcast
9:53 AM 50.0 °F - 42.1 °F 74% 29.83 in 10.0 mi WSW 23.0 mph 28.8 mph N/A   Overcast
10:53 AM 46.9 °F - 39.0 °F 74% 29.84 in 10.0 mi West 20.7 mph - N/A   Overcast
11:53 AM 46.9 °F - 39.9 °F 77% 29.84 in 10.0 mi West 16.1 mph 21.9 mph N/A   Overcast
12:53 PM 46.0 °F 38.5 °F 37.9 °F 73% 29.84 in 10.0 mi West 19.6 mph - N/A   Overcast
1:53 PM 44.1 °F 36.5 °F 37.0 °F 76% 29.85 in 10.0 mi West 17.3 mph - N/A   Overcast
2:53 PM 44.1 °F 36.8 °F 39.0 °F 82% 29.85 in 7.0 mi West 16.1 mph - N/A   Overcast
3:53 PM 44.1 °F 37.1 °F 41.0 °F 89% 29.86 in 2.5 mi West 15.0 mph - N/A   Overcast
3:59 PM 44.6 °F 38.1 °F 41.0 °F 87% 29.86 in 1.8 mi WSW 13.8 mph - N/A   Overcast
4:04 PM 44.6 °F 38.1 °F 42.8 °F 93% 29.86 in 2.0 mi WSW 13.8 mph - N/A   Overcast
4:37 PM 44.6 °F 37.8 °F 42.8 °F 93% 29.87 in 2.5 mi West 15.0 mph - N/A   Overcast
4:46 PM 44.6 °F 37.8 °F 42.8 °F 93% 29.87 in 3.0 mi West 15.0 mph - 0.01 in   Overcast
4:53 PM 44.1 °F 37.1 °F 42.1 °F 93% 29.88 in 3.0 mi West 15.0 mph - 0.01 in   Overcast
5:02 PM 44.6 °F 38.1 °F 42.8 °F 93% 29.88 in 3.0 mi West 13.8 mph - N/A   Overcast
5:15 PM 44.6 °F 38.1 °F 42.8 °F 93% 29.89 in 2.5 mi West 13.8 mph - N/A   Overcast
5:44 PM 46.4 °F 40.7 °F 44.6 °F 93% 29.90 in 3.0 mi WNW 12.7 mph - N/A   Overcast
5:53 PM 46.4 °F 40.1 °F 44.6 °F 93% 29.91 in 4.0 mi WNW 15.0 mph - N/A   Overcast
6:53 PM 46.9 °F - 44.1 °F 90% 29.94 in 9.0 mi WNW 18.4 mph 23.0 mph N/A   Overcast
7:53 PM 48.0 °F - 45.0 °F 89% 29.96 in 6.0 mi NW 15.0 mph 20.7 mph N/A   Overcast
8:42 PM 48.2 °F - 44.6 °F 87% 29.98 in 6.0 mi NW 16.1 mph 24.2 mph 0.00 in Rain Light Rain
8:53 PM 48.9 °F - 45.0 °F 86% 29.98 in 8.0 mi NW 15.0 mph 21.9 mph 0.01 in   Overcast
9:53 PM 48.9 °F - 46.0 °F 90% 30.01 in 3.0 mi NW 15.0 mph - 0.01 in Rain Light Rain
10:16 PM 48.2 °F - 46.4 °F 93% 30.02 in 4.0 mi NNW 13.8 mph 23.0 mph 0.00 in   Overcast
10:53 PM 48.9 °F - 46.0 °F 90% 30.04 in 7.0 mi NNW 17.3 mph 25.3 mph 0.00 in   Overcast
11:53 PM 48.9 °F - 46.0 °F 90% 30.05 in 7.0 mi North 12.7 mph - N/A   Overcast